EW9204 Weather Reports


time (UTC)temp
C
wind
direction
speed
KPH
gust
KPH
rain 1hr
cm
rain 24hr
cm
rain mn
cm
humidity
%
barometer
mb
20260506081016 12 137 1.6 8.0 0.00 0.00 0.00 88 1010.4
20260506080516 12 0 1.6 8.0 0.00 0.00 0.00 88 1010.4
20260506073521 13 249 3.2 14.5 0.00 0.00 0.00 87 1010.3
20260506073033 13 165 1.6 9.7 0.00 0.00 0.00 87 1010.4
20260506072515 13 219 1.6 14.5 0.00 0.00 0.00 87 1010.5
20260506072016 13 225 3.2 14.5 0.00 0.00 0.00 87 1010.6
20260506071534 13 115 3.2 11.3 0.00 0.00 0.00 87 1010.7
20260506071017 13 153 1.6 11.3 0.00 0.00 0.00 87 1010.7
20260506070515 13 234 3.2 11.3 0.00 0.00 0.00 86 1010.6
20260506062516 13 0 4.8 11.3 0.00 0.00 0.00 85 1010.7
20260506062018 13 225 3.2 11.3 0.00 0.00 0.00 84 1010.6
20260506061537 13 207 3.2 11.3 0.00 0.00 0.00 84 1010.7
20260506061017 13 234 3.2 11.3 0.00 0.00 0.00 84 1010.6
20260506060516 13 165 1.6 9.7 0.00 0.00 0.00 84 1010.5
20260506051016 14 148 3.2 9.7 0.00 0.00 0.00 82 1011.0
20260506050516 14 137 1.6 9.7 0.00 0.00 0.00 81 1011.1
20260506045016 14 51 1.6 8.0 0.00 0.00 0.00 79 1011.2
20260506044530 15 110 1.6 6.4 0.00 0.00 0.00 79 1011.2
20260506044020 15 132 3.2 6.4 0.00 0.00 0.00 78 1011.2
20260506043514 15 158 1.6 9.7 0.00 0.00 0.00 78 1011.3
20260506043030 15 212 1.6 9.7 0.00 0.00 0.00 77 1011.2
20260506042514 15 68 1.6 9.7 0.00 0.00 0.00 77 1011.2
20260506042017 15 137 0.0 6.4 0.00 0.00 0.00 76 1011.3
20260506041537 15 168 1.6 6.4 0.00 0.00 0.00 76 1011.2
20260506041015 15 0 1.6 6.4 0.00 0.00 0.00 75 1011.2
20260506040519 15 67 1.6 6.4 0.00 0.00 0.00 75 1011.1
20260506040035 15 178 1.6 6.4 0.00 0.00 0.00 74 1011.1
20260506035516 16 236 1.6 8.0 0.00 0.00 0.00 73 1011.2
20260506035016 16 108 1.6 8.0 0.00 0.00 0.00 73 1011.3
20260506034530 16 142 0.0 8.0 0.00 0.00 0.00 72 1011.3
20260506034014 16 165 1.6 9.7 0.00 0.00 0.00 72 1011.4
20260506033514 16 162 1.6 9.7 0.00 0.00 0.00 71 1011.3
20260506033032 16 175 3.2 9.7 0.00 0.00 0.00 70 1011.2
20260506032516 17 226 3.2 11.3 0.00 0.00 0.00 70 1011.1
20260506032016 17 175 3.2 11.3 0.00 0.00 0.00 70 1011.1
20260506031538 17 137 3.2 11.3 0.00 0.00 0.00 70 1010.9
20260506031016 17 201 1.6 11.3 0.00 0.00 0.00 69 1010.9
20260506030518 17 228 4.8 11.3 0.00 0.00 0.00 69 1010.9
20260506030036 17 173 3.2 11.3 0.00 0.00 0.00 69 1010.9
20260506025514 17 234 3.2 9.7 0.00 0.00 0.00 69 1011.1
20260506025016 17 93 4.8 19.3 0.00 0.00 0.00 68 1011.0
20260506024542 17 219 4.8 19.3 0.00 0.00 0.00 68 1011.0
20260506024014 17 182 8.0 19.3 0.00 0.00 0.00 67 1011.0
20260506023514 17 205 4.8 19.3 0.00 0.00 0.00 67 1011.1
20260506023032 18 214 4.8 19.3 0.00 0.00 0.00 66 1011.1
20260506022514 18 250 6.4 16.1 0.00 0.00 0.00 66 1011.1
20260506022016 18 178 6.4 19.3 0.00 0.00 0.00 66 1011.0
20260506021530 18 167 6.4 20.9 0.00 0.00 0.00 66 1011.0
20260506021015 18 203 9.7 20.9 0.00 0.00 0.00 66 1010.9
20260506020515 18 201 6.4 19.3 0.00 0.00 0.00 66 1011.0
20260506020032 18 225 8.0 19.3 0.00 0.00 0.00 66 1010.9
20260506015517 18 223 8.0 24.1 0.00 0.00 0.00 66 1010.8
20260506015016 18 213 9.7 24.1 0.00 0.00 0.00 66 1010.8
20260506014530 18 171 9.7 22.5 0.00 0.00 0.00 66 1010.9
20260506014015 18 226 9.7 22.5 0.00 0.00 0.00 66 1010.6
20260506013515 18 234 6.4 22.5 0.00 0.00 0.00 66 1010.7
20260506013033 18 221 9.7 24.1 0.00 0.00 0.00 66 1010.6
20260506012515 18 221 9.7 24.1 0.00 0.00 0.00 66 1010.6
20260506012017 18 175 8.0 22.5 0.00 0.00 0.00 66 1010.6
20260506011557 18 250 9.7 22.5 0.00 0.00 0.00 66 1010.6
20260506011016 18 257 8.0 22.5 0.00 0.00 0.00 66 1010.5
20260506010514 18 187 11.3 22.5 0.00 0.00 0.00 66 1010.4
20260506010031 18 119 12.9 20.9 0.00 0.00 0.00 66 1010.1
20260506005516 18 184 8.0 19.3 0.00 0.00 0.00 67 1010.2
20260506005015 18 265 6.4 24.1 0.00 0.00 0.00 67 1010.1
20260506004533 18 175 9.7 24.1 0.00 0.00 0.00 67 1010.0
20260506004017 17 190 8.0 22.5 0.00 0.00 0.00 67 1010.0
20260506003516 17 277 8.0 22.5 0.00 0.00 0.00 67 1009.9
20260506003030 17 240 6.4 22.5 0.00 0.00 0.00 67 1010.0
20260506002518 17 221 6.4 19.3 0.00 0.00 0.00 67 1009.7
20260506002016 17 218 6.4 19.3 0.00 0.00 0.00 67 1009.7
20260506001532 18 282 4.8 12.9 0.00 0.00 0.00 66 1009.7
20260506001014 18 138 3.2 12.9 0.00 0.00 0.00 66 1009.7
20260506000521 18 219 4.8 12.9 0.00 0.00 0.00 66 1009.7
20260505235514 18 265 3.2 12.9 0.00 0.00 0.00 65 1009.6
20260505235016 18 238 4.8 12.9 0.00 0.00 0.00 65 1009.6
20260505234541 18 205 3.2 12.9 0.00 0.00 0.00 64 1009.6
20260505234016 18 225 4.8 12.9 0.00 0.00 0.00 64 1009.6
20260505233516 19 211 4.8 14.5 0.00 0.00 0.00 63 1009.4
20260505233033 19 175 4.8 27.4 0.00 0.00 0.00 63 1009.2
20260505232514 19 184 8.0 27.4 0.00 0.00 0.00 62 1009.1
20260505232016 19 149 8.0 22.5 0.00 0.00 0.00 62 1009.1
20260505231533 20 237 8.0 17.7 0.00 0.00 0.00 62 1009.1
20260505231016 20 228 6.4 17.7 0.00 0.00 0.00 62 1009.0
20260505230514 20 196 9.7 19.3 0.00 0.00 0.00 61 1008.9
20260505230050 20 165 8.0 22.5 0.00 0.00 0.00 61 1008.9
20260505225520 20 0 8.0 24.1 0.00 0.00 0.00 61 1008.9
20260505225016 20 192 8.0 24.1 0.00 0.00 0.00 60 1008.9
20260505224540 20 138 6.4 17.7 0.00 0.00 0.00 60 1008.8
20260505224015 20 214 8.0 19.3 0.00 0.00 0.00 59 1008.8
20260505223514 20 139 6.4 22.5 0.00 0.00 0.00 60 1008.9
20260505223029 20 195 8.0 22.5 0.00 0.00 0.00 59 1008.8
20260505222519 20 200 6.4 22.5 0.00 0.00 0.00 59 1008.8
20260505222015 21 229 8.0 20.9 0.00 0.00 0.00 58 1008.8
20260505221532 21 229 6.4 25.7 0.00 0.00 0.00 58 1008.9
20260505221017 21 265 9.7 25.7 0.00 0.00 0.00 57 1008.9
20260505220514 21 213 8.0 19.3 0.00 0.00 0.00 56 1008.8
20260505220031 21 242 8.0 24.1 0.00 0.00 0.00 56 1008.7
20260505215516 21 225 8.0 29.0 0.00 0.00 0.00 56 1008.6
20260505215015 21 225 9.7 29.0 0.00 0.00 0.00 56 1008.6
20260505214532 21 200 9.7 27.4 0.00 0.00 0.00 55 1008.6
20260505214016 22 226 8.0 22.5 0.00 0.00 0.00 55 1008.6
20260505213515 22 68 9.7 24.1 0.00 0.00 0.00 55 1008.5
20260505213034 22 219 11.3 24.1 0.00 0.00 0.00 54 1008.7
20260505212515 22 228 8.0 22.5 0.00 0.00 0.00 53 1008.7
20260505212018 22 182 8.0 22.5 0.00 0.00 0.00 54 1008.7
20260505211533 22 193 8.0 24.1 0.00 0.00 0.00 54 1008.5
20260505211017 22 121 9.7 24.1 0.00 0.00 0.00 54 1008.4
20260505210517 22 187 9.7 24.1 0.00 0.00 0.00 54 1008.3
20260505210031 22 117 11.3 24.1 0.00 0.00 0.00 53 1008.2
20260505205515 23 141 9.7 25.7 0.00 0.00 0.00 54 1008.3
20260505205013 23 188 11.3 25.7 0.00 0.00 0.00 53 1008.4
20260505204544 23 126 8.0 22.5 0.00 0.00 0.00 53 1008.5
20260505204014 23 175 8.0 29.0 0.00 0.00 0.00 54 1008.6
20260505203516 23 236 8.0 29.0 0.00 0.00 0.00 54 1008.7
20260505203034 23 200 9.7 27.4 0.00 0.00 0.00 54 1008.9
20260505202516 22 232 11.3 30.6 0.00 0.00 0.00 54 1008.8
20260505202014 22 247 11.3 30.6 0.00 0.00 0.00 54 1008.9
20260505201531 22 144 12.9 25.7 0.00 0.00 0.00 53 1009.0
20260505201016 22 146 11.3 27.4 0.00 0.00 0.00 54 1008.9
20260505200516 22 177 11.3 33.8 0.00 0.00 0.00 54 1008.9
20260505200030 23 158 14.5 33.8 0.00 0.00 0.00 54 1008.9
20260505195514 23 238 14.5 30.6 0.00 0.00 0.00 53 1009.0
20260505195014 23 168 12.9 30.6 0.00 0.00 0.00 54 1009.0
20260505194541 23 247 12.9 30.6 0.00 0.00 0.00 53 1009.2
20260505194014 23 192 16.1 29.0 0.00 0.00 0.00 53 1009.3
20260505193514 23 194 12.9 25.7 0.00 0.00 0.00 54 1009.4
20260505193034 23 202 9.7 29.0 0.00 0.00 0.00 54 1009.3
20260505192516 23 234 11.3 32.2 0.00 0.00 0.00 54 1009.4
20260505192016 23 171 8.0 32.2 0.00 0.00 0.00 56 1009.4
20260505191530 23 194 11.3 32.2 0.00 0.00 0.00 55 1009.5
20260505191017 23 211 11.3 32.2 0.00 0.00 0.00 55 1009.5
20260505190518 23 196 12.9 32.2 0.00 0.00 0.00 53 1009.7
20260505190037 23 165 9.7 27.4 0.00 0.00 0.00 54 1009.8
20260505185516 23 196 12.9 29.0 0.00 0.00 0.00 53 1009.8
20260505185014 23 208 14.5 29.0 0.00 0.00 0.00 52 1009.9
20260505184533 23 182 11.3 25.7 0.00 0.00 0.00 52 1009.9
20260505184017 23 221 14.5 25.7 0.00 0.00 0.00 52 1010.1
20260505183516 23 149 9.7 32.2 0.00 0.00 0.00 51 1010.1
20260505183034 24 219 11.3 32.2 0.00 0.00 0.00 50 1010.1
20260505182515 24 153 16.1 30.6 0.00 0.00 0.00 49 1010.1
20260505182014 24 115 9.7 27.4 0.00 0.00 0.00 50 1010.1
20260505181536 24 211 9.7 27.4 0.00 0.00 0.00 49 1010.0
20260505181015 24 212 12.9 33.8 0.00 0.00 0.00 50 1010.1
20260505180515 25 212 11.3 33.8 0.00 0.00 0.00 49 1010.1
20260505180043 25 208 11.3 33.8 0.00 0.00 0.00 48 1010.2
20260505175515 25 216 14.5 30.6 0.00 0.00 0.00 46 1010.1
20260505175016 25 190 9.7 27.4 0.00 0.00 0.00 47 1010.2
20260505174536 25 205 9.7 32.2 0.00 0.00 0.00 49 1010.3
20260505174015 24 209 11.3 32.2 0.00 0.00 0.00 47 1010.3
20260505173514 24 162 12.9 25.7 0.00 0.00 0.00 47 1010.3
20260505173031 24 213 11.3 22.5 0.00 0.00 0.00 49 1010.4
20260505172514 24 198 9.7 24.1 0.00 0.00 0.00 48 1010.4
20260505172014 24 187 11.3 24.1 0.00 0.00 0.00 49 1010.4
20260505171529 23 217 12.9 20.9 0.00 0.00 0.00 50 1010.5
20260505171016 23 126 9.7 24.1 0.00 0.00 0.00 50 1010.5
20260505170518 23 210 9.7 33.8 0.00 0.00 0.00 51 1010.6
20260505170032 23 219 8.0 33.8 0.00 0.00 0.00 54 1010.8
20260505165515 23 0 11.3 33.8 0.00 0.00 0.00 51 1010.9
20260505165015 24 208 9.7 20.9 0.00 0.00 0.00 51 1011.0
20260505164534 24 190 8.0 24.1 0.00 0.00 0.00 51 1011.0
20260505164016 24 198 9.7 27.4 0.00 0.00 0.00 50 1011.1
20260505163519 24 208 11.3 27.4 0.00 0.00 0.00 48 1011.4
20260505163033 24 207 11.3 19.3 0.00 0.00 0.00 49 1011.4
20260505162515 24 150 4.8 16.1 0.00 0.00 0.00 49 1011.5
20260505162019 24 227 8.0 16.1 0.00 0.00 0.00 48 1011.4
20260505161532 24 238 9.7 17.7 0.00 0.00 0.00 47 1011.5
20260505161016 24 282 4.8 17.7 0.00 0.00 0.00 48 1011.6
20260505160517 23 218 9.7 27.4 0.00 0.00 0.00 48 1011.7
20260505153031 23 213 6.4 17.7 0.00 0.00 0.00 53 1012.2
20260505152518 23 205 8.0 22.5 0.00 0.00 0.00 49 1012.3
20260505152017 22 297 6.4 22.5 0.00 0.00 0.00 50 1012.3
20260505151534 22 159 9.7 22.5 0.00 0.00 0.00 51 1012.3
20260505151019 22 249 8.0 22.5 0.00 0.00 0.00 54 1012.3
20260505150516 22 175 8.0 25.7 0.00 0.00 0.00 52 1012.5
20260505140514 20 194 6.4 19.3 0.00 0.00 0.00 62 1012.7
20260505125016 16 221 3.2 12.9 0.00 0.00 0.00 74 1011.9
20260505124541 16 254 4.8 11.3 0.00 0.00 0.00 75 1011.7
20260505124016 15 190 3.2 11.3 0.00 0.00 0.00 78 1011.7
20260505123516 15 207 3.2 11.3 0.00 0.00 0.00 78 1011.8
20260505123030 15 137 4.8 11.3 0.00 0.00 0.00 81 1011.6
20260505122516 14 159 4.8 12.9 0.00 0.00 0.00 81 1011.6
20260505122014 14 225 3.2 12.9 0.00 0.00 0.00 82 1011.5
20260505121554 13 126 0.0 8.0 0.00 0.00 0.00 83 1011.3
20260505121018 13 61 3.2 9.7 0.00 0.00 0.00 83 1011.3
20260505120514 13 344 1.6 11.3 0.00 0.00 0.00 83 1011.6
20260505120030 13 168 4.8 11.3 0.00 0.00 0.00 83 1011.5
20260505115512 13 183 3.2 12.9 0.00 0.00 0.00 84 1011.7
20260505115014 13 316 1.6 12.9 0.00 0.00 0.00 82 1011.3
20260505114533 13 155 3.2 12.9 0.00 0.00 0.00 82 1011.5
20260505114016 13 298 4.8 12.9 0.00 0.00 0.00 81 1011.5
20260505113516 13 333 1.6 6.4 0.00 0.00 0.00 82 1012.0
20260505113031 13 229 1.6 6.4 0.00 0.00 0.00 84 1011.9
20260505112514 13 178 1.6 8.0 0.00 0.00 0.00 85 1011.9
20260505112014 12 205 1.6 8.0 0.00 0.00 0.00 87 1011.9
20260505111538 12 173 3.2 8.0 0.00 0.00 0.00 89 1011.9
20260505111016 11 255 1.6 8.0 0.00 0.00 0.00 92 1011.7
20260505110515 11 171 1.6 8.0 0.00 0.00 0.00 92 1011.8
20260505102014 9 0 0.0 3.2 0.00 0.00 0.00 92 1011.0
20260505101540 9 61 0.0 3.2 0.00 0.00 0.00 92 1010.8
20260505101014 9 0 0.0 3.2 0.00 0.00 0.00 92 1010.8
20260505100516 9 51 0.0 3.2 0.00 0.00 0.00 92 1010.5
20260505100041 9 316 0.0 3.2 0.00 0.00 0.00 92 1010.6
20260505095516 9 165 1.6 3.2 0.00 0.00 0.00 92 1010.4
20260505095016 9 144 1.6 3.2 0.00 0.00 0.00 91 1010.4
20260505094530 9 178 0.0 3.2 0.00 0.00 0.00 91 1010.4
20260505094015 10 238 0.0 3.2 0.00 0.00 0.00 91 1010.4
20260505093516 10 238 1.6 3.2 0.00 0.00 0.00 91 1010.3
20260505093031 10 153 0.0 3.2 0.00 0.00 0.00 92 1010.3
20260505092514 10 178 0.0 4.8 0.00 0.00 0.00 92 1010.4
20260505092014 10 178 0.0 6.4 0.00 0.00 0.00 92 1010.4
20260505091535 10 0 1.6 6.4 0.00 0.00 0.00 92 1010.4
20260505091013 9 249 1.6 3.2 0.00 0.00 0.00 92 1010.3
20260505090513 9 212 0.0 3.2 0.00 0.00 0.00 91 1010.3
20260505090034 9 0 0.0 3.2 0.00 0.00 0.00 91 1010.2
20260505085514 9 137 0.0 4.8 0.00 0.00 0.00 91 1010.4
20260505085017 9 163 1.6 4.8 0.00 0.00 0.00 91 1010.3
20260505084532 9 0 0.0 3.2 0.00 0.00 0.00 91 1010.2
20260505084013 9 0 0.0 3.2 0.00 0.00 0.00 90 1010.3
20260505083519 9 0 0.0 3.2 0.00 0.00 0.00 90 1010.3
20260505083041 9 137 0.0 3.2 0.00 0.00 0.00 90 1010.3
20260505082515 9 0 0.0 3.2 0.00 0.00 0.00 90 1010.5
20260505082016 9 0 0.0 3.2 0.00 0.00 0.00 90 1010.6
20260505081532 9 153 0.0 3.2 0.00 0.00 0.00 90 1010.5